Tracking 32938 objects as of 14-Jan-2026
HD Live streaming from Space Station
objects crossing your sky now

METEOR 2-5 DEB

Track METEOR 2-5 DEB now!
10-day predictions


NORAD ID: 38278
Int'l Code: 1979-095BY
Perigee: 776.9 km
Apogee: 781.1 km
Inclination: 81.2 °
Period: 100.3 minutes
Semi major axis: 7150 km
RCS: 0.007 m2 (small)
Launch date: October 31, 1979
Source: Commonwealth of Independent States (former USSR) (CIS)
Launch site: PLESETSK MISSILE AND SPACE COMPLEX (PKMTR)

Note: This is SATELLITE DEBRIS
Your satellite tracking list
Your tracking list is empty




NASA's NSSDC Master Catalog

Two Line Element Set (TLE):
1 38278U 79095BY  26011.51701453  .00008079  00000-0  27777-2 0  9990
2 38278  81.1701 289.6411 0002967  76.4829  43.1317 14.35958874738101
Source of the keplerian elements: AFSPC